Date String (YYYY-MM-DD hh:mm:ss) UTC,Instrument flags,absolute air pressure of the measurement (hPa),sample flow rate (lpm),inlet stack bypass flow (lpm),air temperature of the measurement (°C),ambient temperature measured by the external sensor (°C),aerosol sample conditioner tube jacket temperature (°C),OPC LED temperature (°C),internal box temperature (°C),relative humidity of the measurement (%),span deviation,mass concentration of particles derived from Lorenz-Mie calculation of OPC scattering (μg/m³),mass concentration of particles derived from Lorenz-Mie calculation of OPC scattering (μg/m³),mass concentration of particles derived from Lorenz-Mie calculation of OPC scattering (μg/m³)
DateTimeUTC,F1_M11,P_M11,Q1_M11,Q2_M11,T1_M11,T2_M11,T3_M11,T4_M11,T5_M11,U1_M11,ZSPAN_M11,X2_M11,X0_M11,X1_M11
2023-11-19 01:00:00,SystemResetWarning,0825.5,4.99,000.00,025.4,023.8,000.0,033.8,026.7,14.8,0003.5,0006.41,0014.93,0005.49
2023-11-19 01:01:00,SystemResetWarning,0825.5,5.00,000.00,025.4,024.0,000.0,033.8,026.8,14.8,0003.2,0006.40,0015.27,0005.46
2023-11-19 01:02:00,SystemResetWarning,0825.5,4.99,000.00,025.4,024.1,000.0,033.8,026.8,14.8,0003.0,0006.36,0015.68,0005.43
2023-11-19 01:03:00,SystemResetWarning,0825.5,4.99,000.00,025.5,024.2,000.0,033.8,026.8,14.7,0003.2,0006.36,0015.63,0005.41
2023-11-19 01:04:00,SystemResetWarning,0825.4,5.00,000.00,025.5,024.3,000.0,033.8,026.9,14.7,0003.4,0006.33,0016.58,0005.39
2023-11-19 01:05:00,SystemResetWarning,0825.4,5.00,000.00,025.5,024.3,000.0,033.8,026.9,14.6,0003.2,0006.27,0016.33,0005.34
2023-11-19 01:06:00,SystemResetWarning,0825.5,5.00,000.00,025.5,024.4,000.0,033.8,027.0,14.5,0003.1,0006.10,0015.65,0005.23
2023-11-19 01:07:00,SystemResetWarning,0825.4,5.00,000.00,025.5,024.4,000.0,033.8,027.0,14.5,0003.0,0005.95,0015.25,0005.11
2023-11-19 01:08:00,SystemResetWarning,0825.4,5.00,000.00,025.5,024.5,000.0,033.8,027.0,14.5,0003.3,0005.86,0015.44,0005.03
2023-11-19 01:09:00,SystemResetWarning,0825.4,5.01,000.00,025.6,024.5,000.0,033.8,027.0,14.5,0003.2,0005.77,0014.88,0004.91
2023-11-19 01:10:00,SystemResetWarning,0825.4,5.00,000.00,025.6,024.5,000.0,033.8,027.1,14.4,0003.2,0005.70,0015.60,0004.79
2023-11-19 01:11:00,SystemResetWarning,0825.4,5.00,000.00,025.6,024.6,000.0,033.8,027.1,14.4,0003.3,0005.63,0015.69,0004.67
2023-11-19 01:12:00,SystemResetWarning,0825.4,4.99,000.00,025.6,024.6,000.0,033.8,027.1,14.2,0003.9,0005.54,0015.33,0004.55
2023-11-19 01:13:00,SystemResetWarning,0825.4,5.00,000.00,025.6,024.6,000.0,033.8,027.1,14.1,0004.1,0005.45,0014.90,0004.46
2023-11-19 01:14:00,SystemResetWarning,0825.4,4.99,000.00,025.6,024.6,000.0,033.9,027.1,13.9,0004.1,0005.33,0014.42,0004.33
2023-11-19 01:15:00,SystemResetWarning,0825.4,4.99,000.00,025.7,024.6,000.0,033.9,027.1,13.9,0004.1,0005.20,0012.89,0004.21
2023-11-19 01:16:00,SystemResetWarning,0825.3,5.00,000.00,025.7,024.7,000.0,033.9,027.1,13.9,0004.0,0005.13,0012.67,0004.11
2023-11-19 01:17:00,SystemResetWarning,0825.4,5.00,000.00,025.7,024.7,000.0,033.9,027.1,14.0,0003.7,0005.10,0012.97,0004.07
2023-11-19 01:18:00,SystemResetWarning,0825.4,5.00,000.00,025.7,024.7,000.0,033.9,027.2,14.0,0003.3,0005.03,0013.27,0004.03
2023-11-19 01:19:00,SystemResetWarning,0825.4,5.01,000.00,025.7,024.7,000.0,033.9,027.2,13.9,0003.2,0004.97,0012.56,0003.99
2023-11-19 01:20:00,SystemResetWarning,0825.4,5.00,000.00,025.7,024.7,000.0,033.9,027.2,13.8,0003.4,0004.93,0012.51,0003.95
2023-11-19 01:21:00,SystemResetWarning,0825.4,4.99,000.00,025.7,024.7,000.0,033.9,027.2,13.8,0003.5,0004.90,0011.75,0003.94
2023-11-19 01:22:00,SystemResetWarning,0825.4,4.99,000.00,025.8,024.8,000.0,034.0,027.2,13.8,0003.9,0004.89,0011.49,0003.95
2023-11-19 01:23:00,SystemResetWarning,0825.4,5.00,000.00,025.8,024.8,000.0,034.0,027.2,13.8,0004.3,0004.83,0012.08,0003.96
2023-11-19 01:24:00,SystemResetWarning,0825.4,4.99,000.00,025.8,024.8,000.0,034.0,027.2,13.6,0004.2,0004.82,0012.37,0003.96
2023-11-19 01:25:00,SystemResetWarning,0825.4,5.01,000.00,025.8,024.8,000.0,034.0,027.3,13.5,0004.5,0004.83,0012.86,0003.97
2023-11-19 01:26:00,SystemResetWarning,0825.4,5.00,000.00,025.8,024.8,000.0,034.0,027.3,13.4,0004.9,0004.81,0013.01,0003.96
2023-11-19 01:27:00,SystemResetWarning,0825.4,5.01,000.00,025.8,024.8,000.0,034.0,027.3,13.5,0004.9,0004.79,0013.17,0003.95
2023-11-19 01:28:00,SystemResetWarning,0825.5,5.00,000.00,025.8,024.8,000.0,034.0,027.3,13.5,0005.1,0004.75,0012.90,0003.93
2023-11-19 01:29:00,SystemResetWarning,0825.5,5.00,000.00,025.8,024.8,000.0,034.0,027.3,13.4,0005.2,0004.78,0012.52,0003.94
2023-11-19 01:30:00,SystemResetWarning,0825.5,5.00,000.00,025.8,024.8,000.0,034.0,027.3,13.3,0005.1,0004.80,0012.66,0003.95
2023-11-19 01:31:00,SystemResetWarning,0825.5,5.00,000.00,025.9,024.8,000.0,034.1,027.3,13.4,0004.8,0004.77,0012.38,0003.95
2023-11-19 01:32:00,SystemResetWarning,0825.5,5.00,000.00,025.9,024.9,000.0,034.1,027.3,13.7,0004.4,0004.72,0012.90,0003.92
2023-11-19 01:33:00,SystemResetWarning,0825.6,4.99,000.00,025.9,024.8,000.0,034.1,027.3,13.8,0004.2,0004.67,0012.99,0003.90
2023-11-19 01:34:00,SystemResetWarning,0825.6,5.00,000.00,025.9,024.8,000.0,034.1,027.3,13.7,0004.2,0004.64,0012.29,0003.88
2023-11-19 01:35:00,SystemResetWarning,0825.5,5.00,000.00,025.9,024.9,000.0,034.1,027.3,13.9,0004.1,0004.57,0011.81,0003.86
2023-11-19 01:36:00,SystemResetWarning,0825.5,5.01,000.00,025.9,024.8,000.0,034.1,027.3,13.8,0003.7,0004.47,0011.15,0003.82
2023-11-19 01:37:00,SystemResetWarning,0825.5,4.99,000.00,025.9,024.8,000.0,034.1,027.3,13.7,0003.0,0004.40,0010.72,0003.78
2023-11-19 01:38:00,SystemResetWarning,0825.5,5.00,000.00,025.9,024.8,000.0,034.1,027.3,13.8,0003.2,0004.35,0010.37,0003.77
2023-11-19 01:39:00,SystemResetWarning,0825.6,5.00,000.00,025.9,024.9,000.0,034.1,027.3,13.9,0003.5,0004.32,0010.83,0003.75
2023-11-19 01:40:00,SystemResetWarning,0825.6,5.00,000.00,025.9,024.9,000.0,034.1,027.3,13.9,0001.8,0004.30,0011.61,0003.71
2023-11-19 01:41:00,SystemResetWarning,0825.5,5.00,000.00,025.9,024.9,000.0,034.1,027.4,14.0,0001.9,0004.23,0011.09,0003.68
2023-11-19 01:42:00,SystemResetWarning,0825.6,5.00,000.00,025.9,024.9,000.0,034.2,027.4,13.9,0002.6,0004.23,0011.27,0003.67
2023-11-19 01:43:00,SystemResetWarning,0825.6,5.01,000.00,025.9,024.9,000.0,034.2,027.3,13.7,0002.2,0004.25,0011.17,0003.67
2023-11-19 01:44:00,SystemResetWarning,0825.5,5.01,000.00,025.9,024.9,000.0,034.2,027.3,13.7,0001.6,0004.27,0011.71,0003.68
2023-11-19 01:45:00,SystemResetWarning,0825.5,5.00,000.00,025.9,024.9,000.0,034.2,027.4,13.6,0000.5,0004.28,0012.25,0003.68
2023-11-19 01:46:00,SystemResetWarning,0825.5,5.00,000.00,025.9,025.0,000.0,034.2,027.4,13.7,0000.6,0004.32,0012.39,0003.71
2023-11-19 01:47:00,SystemResetWarning,0825.5,5.00,000.00,026.0,025.0,000.0,034.2,027.4,13.7,0001.1,0004.38,0012.71,0003.74
2023-11-19 01:48:00,SystemResetWarning,0825.6,4.99,000.00,026.0,025.0,000.0,034.2,027.4,13.9,0001.3,0004.50,0013.26,0003.80
2023-11-19 01:49:00,SystemResetWarning,0825.5,4.99,000.00,026.0,025.0,000.0,034.2,027.4,13.9,0001.8,0004.52,0013.18,0003.83
2023-11-19 01:50:00,SystemResetWarning,0825.5,5.00,000.00,026.0,025.0,000.0,034.2,027.4,13.9,0002.0,0004.53,0012.67,0003.86
2023-11-19 01:51:00,SystemResetWarning,0825.5,5.01,000.00,026.0,025.0,000.0,034.2,027.4,13.9,0003.2,0004.58,0011.52,0003.91
2023-11-19 01:52:00,SystemResetWarning,0825.5,5.00,000.00,026.0,025.1,000.0,034.2,027.4,13.9,0002.9,0004.62,0011.39,0003.98
2023-11-19 01:53:00,SystemResetWarning,0825.6,5.00,000.00,026.0,025.1,000.0,034.3,027.5,13.9,0002.7,0004.67,0011.25,0004.05
2023-11-19 01:54:00,SystemResetWarning,0825.5,5.00,000.00,026.0,025.1,000.0,034.3,027.5,13.9,0003.2,0004.80,0011.15,0004.16
2023-11-19 01:55:00,SystemResetWarning,0825.6,5.00,000.00,026.1,025.1,000.0,034.3,027.5,13.9,0004.1,0004.91,0010.65,0004.26
2023-11-19 01:56:00,SystemResetWarning,0825.6,5.00,000.00,026.1,025.1,000.0,034.3,027.5,14.0,0003.9,0005.03,0010.48,0004.36
2023-11-19 01:57:00,SystemResetWarning,0825.6,5.00,000.00,026.1,025.1,000.0,034.3,027.5,14.1,0004.6,0005.12,0011.52,0004.46
2023-11-19 01:58:00,SystemResetWarning,0825.6,5.00,000.00,026.1,025.1,000.0,034.3,027.5,14.1,0004.7,0005.20,0011.65,0004.53
2023-11-19 01:59:00,SystemResetWarning,0825.6,5.00,000.00,026.1,025.2,000.0,034.3,027.5,14.1,0004.7,0005.25,0011.11,0004.60
